EW9596 Weather Reports


Display with metric or nautical units.
time (UTC)temp
F
wind
direction
speed
MPH
gust
MPH
rain 1hr
in
rain 24hr
in
rain mn
in
humidity
%
barometer
mb
20260503221034 57 267 3.0 8.0 0.00 0.00 0.00 39 1011.2
20260503220535 57 263 2.0 7.0 0.00 0.00 0.00 39 1011.3
20260503220032 57 236 4.0 7.0 0.00 0.00 0.00 39 1011.4
20260503215531 57 218 1.0 6.0 0.00 0.00 0.00 40 1011.4
20260503215033 56 227 3.0 7.0 0.00 0.00 0.00 40 1011.5
20260503214531 56 225 1.0 7.0 0.00 0.00 0.00 40 1011.5
20260503214031 56 271 2.0 8.0 0.00 0.00 0.00 40 1011.5
20260503213531 56 224 1.0 8.0 0.00 0.00 0.00 40 1011.5
20260503213033 57 248 2.0 10.0 0.00 0.00 0.00 40 1011.5
20260503212529 57 255 4.0 10.0 0.00 0.00 0.00 40 1011.5
20260503212028 57 252 2.0 8.0 0.00 0.00 0.00 41 1011.5
20260503211529 57 293 3.0 10.0 0.00 0.00 0.00 41 1011.5
20260503211030 57 328 4.0 10.0 0.00 0.00 0.00 41 1011.6
20260503210528 57 226 3.0 11.0 0.00 0.00 0.00 40 1011.6
20260503210028 57 248 5.0 12.0 0.00 0.00 0.00 41 1011.6
20260503205528 57 251 4.0 12.0 0.00 0.00 0.00 41 1011.7
20260503205027 57 273 6.0 13.0 0.00 0.00 0.00 41 1011.8
20260503204528 56 211 6.0 17.0 0.00 0.00 0.00 41 1011.9
20260503204026 56 231 9.0 20.0 0.00 0.00 0.00 39 1011.7
20260503203527 57 265 7.0 20.0 0.00 0.00 0.00 39 1011.7
20260503203126 57 223 5.0 10.0 0.00 0.00 0.00 39 1011.7
20260503202526 57 282 4.0 11.0 0.00 0.00 0.00 39 1011.7
20260503202030 57 291 5.0 15.0 0.00 0.00 0.00 38 1011.7
20260503201527 57 276 4.0 15.0 0.00 0.00 0.00 37 1011.6
20260503201026 57 242 5.0 14.0 0.00 0.00 0.00 36 1011.8
20260503200526 58 227 6.0 14.0 0.00 0.00 0.00 35 1011.7
20260503200028 58 232 6.0 14.0 0.00 0.00 0.00 34 1011.6
20260503195525 58 239 7.0 14.0 0.00 0.00 0.00 34 1011.6
20260503195027 58 242 4.0 15.0 0.00 0.00 0.00 37 1011.7
20260503194525 57 194 6.0 13.0 0.00 0.00 0.00 35 1011.7
20260503194023 57 290 8.0 19.0 0.00 0.00 0.00 33 1011.8
20260503193525 57 220 8.0 19.0 0.00 0.00 0.00 34 1012.0
20260503193022 57 257 7.0 15.0 0.00 0.00 0.00 34 1011.9
20260503192521 57 205 6.0 16.0 0.00 0.00 0.00 34 1012.0
20260503192022 58 264 7.0 14.0 0.00 0.00 0.00 32 1012.0
20260503191528 58 317 5.0 18.0 0.00 0.00 0.00 33 1012.0
20260503191021 58 284 5.0 18.0 0.00 0.00 0.00 32 1012.0
20260503190520 58 225 10.0 16.0 0.00 0.00 0.00 32 1012.2
20260503190020 58 259 9.0 14.0 0.00 0.00 0.00 31 1012.2
20260503185519 58 218 6.0 13.0 0.00 0.00 0.00 33 1012.2
20260503185018 58 246 7.0 17.0 0.00 0.00 0.00 34 1012.2
20260503184518 58 249 8.0 16.0 0.00 0.00 0.00 32 1012.3
20260503184017 58 283 6.0 16.0 0.00 0.00 0.00 35 1012.4
20260503183515 58 246 8.0 17.0 0.00 0.00 0.00 32 1012.3
20260503183017 57 271 8.0 23.0 0.00 0.00 0.00 34 1012.4
20260503182514 57 221 9.0 23.0 0.00 0.00 0.00 31 1012.6
20260503182014 57 271 7.0 12.0 0.00 0.00 0.00 33 1012.6
20260503181513 57 305 3.0 12.0 0.00 0.00 0.00 35 1012.7
20260503181012 56 217 7.0 14.0 0.00 0.00 0.00 34 1012.6
20260503180512 56 198 7.0 14.0 0.00 0.00 0.00 35 1012.8
20260503180012 56 283 5.0 11.0 0.00 0.00 0.00 34 1012.8
20260503175508 55 283 3.0 11.0 0.00 0.00 0.00 37 1012.9
20260503175007 55 257 6.0 16.0 0.00 0.00 0.00 35 1012.9
20260503174506 55 286 5.0 16.0 0.00 0.00 0.00 35 1013.1
20260503174005 55 261 7.0 14.0 0.00 0.00 0.00 38 1013.2
20260503173504 54 244 3.0 11.0 0.00 0.00 0.00 35 1013.3
20260503173003 54 324 4.0 10.0 0.00 0.00 0.00 37 1013.5
20260503172502 54 288 3.0 10.0 0.00 0.00 0.00 38 1013.5
20260503172002 54 258 4.0 8.0 0.00 0.00 0.00 36 1013.5
20260503171502 54 265 3.0 12.0 0.00 0.00 0.00 36 1013.6
20260503171003 54 284 4.0 13.0 0.00 0.00 0.00 35 1013.6
20260503170503 54 313 4.0 13.0 0.00 0.00 0.00 39 1013.7
20260503150548 52 251 3.0 12.0 0.00 0.00 0.00 36 1014.7
20260503131028 46 273 4.0 14.0 0.00 0.00 0.00 52 1014.9
20260503130527 46 259 3.0 14.0 0.00 0.00 0.00 54 1015.0
20260503110507 38 235 1.0 4.0 0.00 0.00 0.00 78 1014.8
20260503090506 38 215 0.0 2.0 0.00 0.00 0.00 77 1014.1
20260503081501 38 181 0.0 5.0 0.00 0.00 0.00 77 1014.1
20260503081003 38 162 0.0 5.0 0.00 0.00 0.00 77 1014.1
20260503080601 38 147 0.0 3.0 0.00 0.00 0.00 77 1014.1
20260503072556 38 270 0.0 0.0 0.00 0.00 0.00 75 1014.0
20260503072055 38 270 0.0 0.0 0.00 0.00 0.00 75 1014.1
20260503071612 38 270 0.0 0.0 0.00 0.00 0.00 74 1014.0
20260503071055 38 270 0.0 0.0 0.00 0.00 0.00 74 1014.0
20260503070558 38 270 0.0 0.0 0.00 0.00 0.00 73 1014.0
20260503060108 39 270 0.0 0.0 0.00 0.00 0.00 71 1014.3
20260503055047 39 271 0.0 0.0 0.00 0.00 0.00 71 1014.4
20260503054557 39 271 0.0 0.0 0.00 0.00 0.00 70 1014.3
20260503054047 39 271 0.0 0.0 0.00 0.00 0.00 70 1014.4
20260503053546 39 271 0.0 0.0 0.00 0.00 0.00 70 1014.5
20260503053045 39 271 0.0 0.0 0.00 0.00 0.00 70 1014.5
20260503052544 40 271 0.0 0.0 0.00 0.00 0.00 70 1014.6
20260503052044 40 271 0.0 0.0 0.00 0.00 0.00 70 1014.6
20260503051543 40 271 0.0 0.0 0.00 0.00 0.00 70 1014.7
20260503051044 39 271 0.0 0.0 0.00 0.00 0.00 69 1014.8
20260503050541 40 271 0.0 0.0 0.00 0.00 0.00 69 1014.8
20260503050042 40 271 0.0 0.0 0.00 0.00 0.00 68 1014.9
20260503045545 40 271 0.0 0.0 0.00 0.01 0.00 68 1015.0
20260503045043 40 271 0.0 0.0 0.00 0.01 0.00 68 1015.0
20260503044538 40 271 0.0 0.0 0.00 0.01 0.00 68 1015.1
20260503044038 40 271 0.0 0.0 0.00 0.01 0.00 67 1015.1
20260503043538 40 271 0.0 0.0 0.00 0.01 0.00 67 1015.1
20260503043037 40 271 0.0 0.0 0.00 0.01 0.00 66 1015.1
20260503042537 40 271 0.0 0.0 0.00 0.01 0.00 66 1015.2
20260503042035 40 271 0.0 0.0 0.00 0.01 0.00 66 1015.3
20260503041539 41 273 0.0 0.0 0.00 0.01 0.00 66 1015.2
20260503041036 41 273 0.0 0.0 0.00 0.01 0.00 65 1015.3
20260503040533 41 273 0.0 0.0 0.00 0.01 0.00 65 1015.3
20260503040033 41 273 0.0 0.0 0.00 0.01 0.00 65 1015.2
20260503035532 41 273 0.0 0.0 0.00 0.01 0.01 65 1015.3
20260503035033 41 277 0.0 0.0 0.00 0.01 0.01 64 1015.2
20260503034532 42 285 0.0 0.0 0.00 0.01 0.01 64 1015.2
20260503034034 42 287 0.0 0.0 0.00 0.01 0.01 63 1015.2
20260503033531 42 287 0.0 0.0 0.00 0.01 0.01 63 1015.3
20260503033036 42 288 0.0 0.0 0.00 0.01 0.01 63 1015.3
20260503032532 42 288 0.0 0.0 0.00 0.01 0.01 63 1015.2
20260503032031 42 288 0.0 0.0 0.00 0.01 0.01 63 1015.2
20260503031531 43 288 0.0 0.0 0.00 0.01 0.01 63 1015.2
20260503031030 43 288 0.0 0.0 0.00 0.01 0.01 63 1015.1
20260503030530 43 288 0.0 0.0 0.00 0.01 0.01 62 1015.2
20260503030041 43 288 0.0 0.0 0.00 0.01 0.01 62 1015.2
20260503025531 43 288 0.0 0.0 0.00 0.02 0.01 62 1015.3
20260503025032 43 289 0.0 0.0 0.00 0.02 0.01 61 1015.3
20260503024531 43 288 0.0 2.0 0.00 0.02 0.01 61 1015.3
20260503024030 43 288 0.0 2.0 0.00 0.02 0.01 61 1015.3
20260503023529 43 287 0.0 3.0 0.00 0.02 0.01 61 1015.3
20260503023031 43 242 0.0 3.0 0.00 0.02 0.01 60 1015.3
20260503022529 44 5 0.0 3.0 0.00 0.02 0.01 60 1015.3
20260503022029 44 347 0.0 0.0 0.00 0.02 0.01 60 1015.3
20260503021529 44 350 0.0 3.0 0.00 0.02 0.01 60 1015.3
20260503021029 44 319 1.0 4.0 0.00 0.02 0.01 59 1015.3
20260503020528 44 336 0.0 4.0 0.00 0.02 0.01 59 1015.4
20260503020028 44 295 0.0 3.0 0.00 0.02 0.01 59 1015.4
20260503015528 44 13 1.0 4.0 0.00 0.03 0.01 59 1015.4
20260503015028 44 289 0.0 4.0 0.00 0.03 0.01 58 1015.3
20260503014528 44 275 1.0 5.0 0.00 0.03 0.01 58 1015.3
20260503014028 44 265 2.0 5.0 0.00 0.03 0.01 58 1015.3
20260503013527 44 319 0.0 0.0 0.00 0.03 0.01 58 1015.2
20260503013031 45 19 0.0 0.0 0.00 0.03 0.01 57 1015.2
20260503012530 45 266 0.0 7.0 0.00 0.03 0.01 57 1015.2
20260503012031 45 268 1.0 7.0 0.00 0.03 0.01 57 1015.1
20260503011528 45 330 2.0 8.0 0.00 0.03 0.01 56 1015.1
20260503011029 45 288 3.0 8.0 0.00 0.03 0.01 56 1015.1
20260503010526 45 255 0.0 2.0 0.00 0.03 0.01 55 1015.0
20260503010032 45 261 1.0 2.0 0.00 0.03 0.01 55 1014.9
20260503005526 45 249 0.0 3.0 0.00 0.04 0.01 54 1014.8
20260503005025 45 251 0.0 3.0 0.00 0.04 0.01 54 1014.8
20260503004526 45 259 0.0 3.0 0.00 0.04 0.01 53 1014.8
20260503004026 46 254 0.0 3.0 0.00 0.04 0.01 53 1014.7
20260503003525 46 302 0.0 5.0 0.00 0.04 0.01 52 1014.7
20260503003026 46 296 1.0 4.0 0.00 0.04 0.01 52 1014.6
20260503002527 46 315 0.0 4.0 0.00 0.04 0.01 52 1014.6
20260503002025 46 304 0.0 4.0 0.00 0.04 0.01 52 1014.6
20260503001524 46 275 0.0 3.0 0.00 0.04 0.01 52 1014.6
20260503001023 46 340 0.0 2.0 0.00 0.04 0.01 52 1014.5
20260503000523 46 337 0.0 4.0 0.00 0.04 0.01 51 1014.5
20260503000023 47 323 0.0 6.0 0.00 0.04 0.01 51 1014.5
20260502235524 47 275 2.0 8.0 0.00 0.07 0.01 50 1014.5
20260502235024 47 25 2.0 8.0 0.00 0.07 0.01 50 1014.5
20260502234528 47 336 0.0 4.0 0.00 0.07 0.01 50 1014.4
20260502234024 47 342 0.0 6.0 0.00 0.07 0.01 49 1014.4
20260502233523 47 55 1.0 4.0 0.00 0.07 0.01 50 1014.4
20260502233025 47 37 1.0 4.0 0.00 0.07 0.01 50 1014.3
20260502232526 47 269 0.0 3.0 0.00 0.07 0.01 50 1014.3
20260502232022 47 282 0.0 5.0 0.00 0.07 0.01 50 1014.2
20260502231522 47 25 2.0 5.0 0.00 0.07 0.01 50 1014.1
20260502231022 48 227 0.0 8.0 0.00 0.07 0.01 49 1014.1
20260502230522 48 336 2.0 8.0 0.00 0.07 0.01 50 1014.1
20260502230026 48 15 1.0 5.0 0.00 0.07 0.01 51 1014.1
20260502225520 48 281 0.0 6.0 0.00 0.07 0.01 52 1014.0
20260502225025 48 314 0.0 2.0 0.00 0.07 0.01 53 1014.0
20260502224523 48 314 0.0 1.0 0.00 0.07 0.01 53 1014.1
20260502224021 48 314 0.0 3.0 0.00 0.07 0.01 53 1014.0
20260502223520 48 314 1.0 3.0 0.00 0.07 0.01 52 1014.0
20260502223020 48 12 0.0 3.0 0.00 0.07 0.01 52 1014.0
20260502222520 48 360 0.0 4.0 0.00 0.07 0.01 52 1013.9
20260502222019 48 303 1.0 3.0 0.00 0.07 0.01 53 1014.0
20260502221519 48 324 0.0 4.0 0.00 0.07 0.01 53 1014.0